FW9983 Weather Reports


time (UTC)temp
C
wind
direction
speed
KPH
gust
KPH
rain 1hr
cm
rain 24hr
cm
rain mn
cm
humidity
%
barometer
mb
20260906225543 36 204 3.2 11.3 0.00 0.00 0.00 43 1010.7
20260906225043 37 113 3.2 9.7 0.00 0.00 0.00 43 1010.7
20260906224556 37 110 1.6 8.0 0.00 0.00 0.00 42 1010.6
20260906224042 37 102 1.6 12.9 0.00 0.00 0.00 42 1010.6
20260906223543 36 144 3.2 12.9 0.00 0.00 0.00 42 1010.7
20260906223054 36 92 1.6 9.7 0.00 0.00 0.00 43 1010.7
20260906222543 36 103 1.6 16.1 0.00 0.00 0.00 43 1010.8
20260906222042 36 0 3.2 16.1 0.00 0.00 0.00 43 1010.8
20260906221555 37 69 3.2 9.7 0.00 0.00 0.00 42 1010.8
20260906221042 37 59 3.2 9.7 0.00 0.00 0.00 42 1010.9
20260906220543 37 0 1.6 12.9 0.00 0.00 0.00 43 1010.8
20260906215547 37 101 3.2 16.1 0.00 0.00 0.00 42 1010.8
20260906215043 37 74 4.8 14.5 0.00 0.00 0.00 43 1011.0
20260906214559 37 75 4.8 11.3 0.00 0.00 0.00 43 1011.1
20260906214043 37 83 3.2 11.3 0.00 0.00 0.00 43 1011.1
20260906213543 37 0 0.0 9.7 0.00 0.00 0.00 43 1011.1
20260906213102 36 107 3.2 9.7 0.00 0.00 0.00 43 1011.3
20260906212543 36 105 0.0 12.9 0.00 0.00 0.00 45 1011.4
20260906212042 36 162 3.2 14.5 0.00 0.00 0.00 44 1011.5
20260906211551 36 89 4.8 14.5 0.00 0.00 0.00 43 1011.6
20260906211043 37 91 3.2 14.5 0.00 0.00 0.00 44 1011.5
20260906210545 36 61 3.2 14.5 0.00 0.00 0.00 44 1011.5
20260906210113 36 88 4.8 14.5 0.00 0.00 0.00 44 1011.6
20260906205545 36 141 4.8 14.5 0.00 0.00 0.00 45 1011.7
20260906205042 36 88 3.2 17.7 0.00 0.00 0.00 45 1011.7
20260906204557 36 87 3.2 17.7 0.00 0.00 0.00 44 1011.9
20260906204043 36 81 1.6 12.9 0.00 0.00 0.00 45 1011.9
20260906203544 36 63 3.2 16.1 0.00 0.00 0.00 45 1012.0
20260906203105 36 83 3.2 16.1 0.00 0.00 0.00 45 1011.9
20260906202543 36 126 3.2 14.5 0.00 0.00 0.00 45 1012.0
20260906202043 36 221 4.8 14.5 0.00 0.00 0.00 44 1012.0
20260906201604 36 160 3.2 14.5 0.00 0.00 0.00 44 1012.2
20260906201046 36 207 3.2 14.5 0.00 0.00 0.00 46 1012.1
20260906200544 36 90 1.6 14.5 0.00 0.00 0.00 45 1012.2
20260906200108 36 98 3.2 14.5 0.00 0.00 0.00 45 1012.3
20260906195547 36 178 3.2 9.7 0.00 0.00 0.00 47 1012.3
20260906195044 36 71 0.0 12.9 0.00 0.00 0.00 47 1012.4
20260906194556 36 127 3.2 12.9 0.00 0.00 0.00 46 1012.4
20260906194048 36 74 1.6 12.9 0.00 0.00 0.00 46 1012.5
20260906193547 36 225 3.2 12.9 0.00 0.00 0.00 46 1012.5
20260906193103 36 261 4.8 12.9 0.00 0.00 0.00 48 1012.5
20260906192547 35 104 1.6 16.1 0.00 0.00 0.00 47 1012.5
20260906192044 35 103 4.8 16.1 0.00 0.00 0.00 47 1012.7
20260906191559 36 92 3.2 16.1 0.00 0.00 0.00 47 1012.9
20260906191046 35 92 3.2 11.3 0.00 0.00 0.00 48 1012.8
20260906190548 35 140 3.2 16.1 0.00 0.00 0.00 47 1012.9
20260906190103 35 78 4.8 16.1 0.00 0.00 0.00 48 1012.9
20260906185544 35 85 3.2 16.1 0.00 0.00 0.00 48 1013.0
20260906185045 35 69 4.8 16.1 0.00 0.00 0.00 48 1013.1
20260906184619 35 74 4.8 17.7 0.00 0.00 0.00 48 1013.1
20260906184047 35 66 6.4 17.7 0.00 0.00 0.00 49 1013.2
20260906183544 35 39 3.2 16.1 0.00 0.00 0.00 49 1013.2
20260906183101 35 360 1.6 16.1 0.00 0.00 0.00 49 1013.3
20260906182545 35 102 4.8 14.5 0.00 0.00 0.00 49 1013.3
20260906182045 35 88 1.6 11.3 0.00 0.00 0.00 49 1013.4
20260906181602 35 59 3.2 11.3 0.00 0.00 0.00 49 1013.5
20260906181045 35 65 3.2 12.9 0.00 0.00 0.00 50 1013.6
20260906180545 35 107 3.2 17.7 0.00 0.00 0.00 50 1013.7
20260906180055 35 106 3.2 17.7 0.00 0.00 0.00 49 1013.5
20260906175548 35 235 3.2 14.5 0.00 0.00 0.00 50 1013.7
20260906175048 35 55 3.2 14.5 0.00 0.00 0.00 51 1013.9
20260906174552 35 194 4.8 14.5 0.00 0.00 0.00 49 1013.8
20260906174045 35 0 0.0 14.5 0.00 0.00 0.00 52 1014.0
20260906173545 35 113 4.8 14.5 0.00 0.00 0.00 51 1014.2
20260906173058 35 202 3.2 14.5 0.00 0.00 0.00 51 1014.2
20260906172547 35 117 1.6 14.5 0.00 0.00 0.00 53 1014.3
20260906172045 34 148 1.6 9.7 0.00 0.00 0.00 53 1014.3
20260906171555 34 157 1.6 11.3 0.00 0.00 0.00 53 1014.4
20260906171044 34 163 4.8 11.3 0.00 0.00 0.00 53 1014.4
20260906170544 34 128 3.2 12.9 0.00 0.00 0.00 54 1014.4
20260906170052 34 199 1.6 12.9 0.00 0.00 0.00 54 1014.5
20260906165545 33 205 1.6 11.3 0.00 0.00 0.00 55 1014.5
20260906165045 33 0 3.2 16.1 0.00 0.00 0.00 54 1014.6
20260906164603 33 221 1.6 17.7 0.00 0.00 0.00 55 1014.7
20260906164045 33 70 1.6 17.7 0.00 0.00 0.00 57 1014.9
20260906163545 33 81 3.2 9.7 0.00 0.00 0.00 55 1014.9
20260906163112 33 0 0.0 14.5 0.00 0.00 0.00 57 1014.9
20260906162545 33 157 3.2 14.5 0.00 0.00 0.00 57 1014.8
20260906162045 33 131 3.2 14.5 0.00 0.00 0.00 59 1014.8
20260906161622 33 0 3.2 9.7 0.00 0.00 0.00 57 1014.9
20260906161044 33 194 1.6 9.7 0.00 0.00 0.00 60 1014.8
20260906160545 32 107 1.6 9.7 0.00 0.00 0.00 60 1014.9
20260906160109 32 198 1.6 6.4 0.00 0.00 0.00 60 1014.9
20260906155545 32 120 1.6 6.4 0.00 0.00 0.00 60 1014.7
20260906155044 32 125 0.0 9.7 0.00 0.00 0.00 62 1014.8
20260906154605 32 78 3.2 9.7 0.00 0.00 0.00 62 1014.9
20260906154044 32 206 1.6 8.0 0.00 0.00 0.00 62 1014.8
20260906153544 32 103 1.6 6.4 0.00 0.00 0.00 63 1014.8
20260906153059 32 0 1.6 6.4 0.00 0.00 0.00 63 1014.6
20260906152545 32 93 0.0 6.4 0.00 0.00 0.00 62 1014.4
20260906152047 32 159 0.0 4.8 0.00 0.00 0.00 64 1014.4
20260906151554 32 0 1.6 4.8 0.00 0.00 0.00 64 1014.4
20260906151047 32 107 0.0 6.4 0.00 0.00 0.00 65 1014.4
20260906150547 31 109 1.6 6.4 0.00 0.00 0.00 66 1014.2
20260906150105 31 142 0.0 6.4 0.00 0.00 0.00 67 1014.2
20260906145551 31 0 1.6 4.8 0.00 0.00 0.00 67 1014.2
20260906145050 31 84 1.6 8.0 0.00 0.00 0.00 67 1014.1
20260906144611 31 192 1.6 8.0 0.00 0.00 0.00 68 1014.2
20260906144047 31 139 0.0 6.4 0.00 0.00 0.00 68 1014.2
20260906143547 30 89 0.0 6.4 0.00 0.00 0.00 69 1014.2
20260906143058 30 96 1.6 6.4 0.00 0.00 0.00 69 1014.2
20260906142546 30 0 1.6 4.8 0.00 0.00 0.00 69 1014.2
20260906142047 30 77 1.6 6.4 0.00 0.00 0.00 69 1014.1
20260906141620 30 76 0.0 6.4 0.00 0.00 0.00 70 1014.1
20260906141047 30 76 0.0 4.8 0.00 0.00 0.00 70 1014.1
20260906140547 30 0 0.0 1.6 0.00 0.00 0.00 71 1014.0
20260906140121 30 0 0.0 3.2 0.00 0.00 0.00 71 1014.2
20260906135547 30 95 0.0 3.2 0.00 0.00 0.00 72 1014.3
20260906135047 29 0 0.0 3.2 0.00 0.00 0.00 73 1014.2
20260906134605 28 0 0.0 3.2 0.00 0.00 0.00 74 1014.1
20260906134049 28 0 0.0 3.2 0.00 0.00 0.00 76 1014.1
20260906133546 28 0 0.0 3.2 0.00 0.00 0.00 76 1014.1
20260906133056 28 0 0.0 3.2 0.00 0.00 0.00 77 1014.1
20260906132547 27 149 0.0 3.2 0.00 0.00 0.00 79 1014.1
20260906132044 27 0 0.0 1.6 0.00 0.00 0.00 80 1014.2
20260906131606 26 0 0.0 0.0 0.00 0.00 0.00 82 1014.1
20260906131047 26 0 0.0 0.0 0.00 0.00 0.00 83 1014.1
20260906130547 26 0 0.0 0.0 0.00 0.00 0.00 84 1014.1
20260906130147 26 0 0.0 0.0 0.00 0.00 0.00 84 1014.0
20260906125548 25 0 0.0 0.0 0.00 0.00 0.00 84 1013.9
20260906125046 25 0 0.0 0.0 0.00 0.00 0.00 84 1013.8
20260906124610 25 0 0.0 0.0 0.00 0.00 0.00 84 1013.8
20260906124047 25 0 0.0 0.0 0.00 0.00 0.00 84 1013.8
20260906123544 25 0 0.0 0.0 0.00 0.00 0.00 84 1013.7
20260906123053 25 0 0.0 0.0 0.00 0.00 0.00 84 1013.7
20260906122547 25 0 0.0 0.0 0.00 0.00 0.00 84 1013.6
20260906122044 25 0 0.0 0.0 0.00 0.00 0.00 84 1013.5
20260906121602 25 0 0.0 0.0 0.00 0.00 0.00 84 1013.3
20260906121044 25 0 0.0 0.0 0.00 0.00 0.00 84 1013.4
20260906120544 25 0 0.0 0.0 0.00 0.00 0.00 84 1013.3
20260906120107 25 0 0.0 0.0 0.00 0.00 0.00 83 1013.3
20260906115545 25 0 0.0 0.0 0.00 0.00 0.00 83 1013.4
20260906115045 25 0 0.0 0.0 0.00 0.00 0.00 83 1013.2
20260906114553 25 0 0.0 0.0 0.00 0.00 0.00 82 1013.2
20260906114046 25 0 0.0 0.0 0.00 0.00 0.00 82 1013.0
20260906113543 25 0 0.0 0.0 0.00 0.00 0.00 82 1013.1
20260906113056 25 0 0.0 0.0 0.00 0.00 0.00 81 1013.1
20260906112544 26 0 0.0 0.0 0.00 0.00 0.00 82 1013.0
20260906112044 26 0 0.0 0.0 0.00 0.00 0.00 82 1012.9
20260906111602 26 0 0.0 0.0 0.00 0.00 0.00 82 1013.0
20260906111046 26 0 0.0 0.0 0.00 0.00 0.00 82 1013.0
20260906110544 26 0 0.0 0.0 0.00 0.00 0.00 83 1013.0
20260906110054 26 0 0.0 0.0 0.00 0.00 0.00 82 1012.8
20260906105544 26 0 0.0 0.0 0.00 0.00 0.00 82 1012.8
20260906105046 26 0 0.0 0.0 0.00 0.00 0.00 82 1012.8
20260906104648 26 0 0.0 0.0 0.00 0.00 0.00 81 1012.8
20260906104044 26 0 0.0 0.0 0.00 0.00 0.00 81 1012.8
20260906103545 26 0 0.0 0.0 0.00 0.00 0.00 81 1012.8
20260906103057 26 0 0.0 0.0 0.00 0.00 0.00 81 1012.9
20260906102548 26 0 0.0 0.0 0.00 0.00 0.00 81 1012.8
20260906102044 26 0 0.0 0.0 0.00 0.00 0.00 81 1012.8
20260906101553 26 0 0.0 0.0 0.00 0.00 0.00 81 1012.7
20260906101044 26 0 0.0 0.0 0.00 0.00 0.00 80 1012.7
20260906100547 26 0 0.0 0.0 0.00 0.00 0.00 79 1012.6
20260906100054 26 0 0.0 0.0 0.00 0.00 0.00 79 1012.6
20260906095544 26 0 0.0 0.0 0.00 0.00 0.00 79 1012.5
20260906095044 26 0 0.0 0.0 0.00 0.00 0.00 79 1012.4
20260906094556 27 0 0.0 0.0 0.00 0.00 0.00 78 1012.6
20260906094045 27 0 0.0 0.0 0.00 0.00 0.00 78 1012.4
20260906093544 27 0 0.0 0.0 0.00 0.00 0.00 78 1012.3
20260906093056 27 0 0.0 0.0 0.00 0.00 0.00 78 1012.4
20260906092544 27 0 0.0 0.0 0.00 0.00 0.00 77 1012.3
20260906092045 27 0 0.0 0.0 0.00 0.00 0.00 77 1012.3
20260906091550 27 0 0.0 6.4 0.00 0.00 0.00 77 1012.2
20260906091044 27 0 0.0 6.4 0.00 0.00 0.00 77 1012.2
20260906090544 27 0 0.0 4.8 0.00 0.00 0.00 76 1012.2
20260906090057 27 188 0.0 4.8 0.00 0.00 0.00 76 1012.1
20260906085545 27 0 0.0 6.4 0.00 0.00 0.00 76 1012.2
20260906085044 27 0 0.0 8.0 0.00 0.00 0.00 76 1012.3
20260906084556 27 192 3.2 8.0 0.00 0.00 0.00 75 1012.2
20260906084048 27 0 1.6 6.4 0.00 0.00 0.00 75 1012.3
20260906083545 27 182 0.0 4.8 0.00 0.00 0.00 75 1012.2
20260906083054 27 236 0.0 4.8 0.00 0.00 0.00 75 1012.3
20260906082544 27 206 0.0 8.0 0.00 0.00 0.00 75 1012.2
20260906082044 27 178 1.6 8.0 0.00 0.00 0.00 75 1012.2
20260906081551 27 178 1.6 9.7 0.00 0.00 0.00 75 1012.1
20260906081045 27 252 1.6 9.7 0.00 0.00 0.00 75 1012.2
20260906080544 27 204 0.0 6.4 0.00 0.00 0.00 76 1012.2
20260906080057 27 0 1.6 6.4 0.00 0.00 0.00 75 1012.1
20260906075543 27 0 0.0 6.4 0.00 0.00 0.00 75 1012.2
20260906075045 27 0 0.0 1.6 0.00 0.00 0.00 75 1012.3
20260906074554 27 0 0.0 1.6 0.00 0.00 0.00 75 1012.3
20260906074044 28 0 0.0 0.0 0.00 0.00 0.00 75 1012.3
20260906073544 28 0 0.0 0.0 0.00 0.00 0.00 75 1012.3
20260906073059 28 0 0.0 0.0 0.00 0.00 0.00 75 1012.5
20260906072544 28 0 0.0 1.6 0.00 0.00 0.00 74 1012.5
20260906072044 28 0 0.0 1.6 0.00 0.00 0.00 74 1012.4
20260906071552 28 0 0.0 1.6 0.00 0.00 0.00 74 1012.4
20260906071044 28 0 0.0 4.8 0.00 0.00 0.00 74 1012.5
20260906070544 28 0 0.0 4.8 0.00 0.00 0.00 74 1012.5
20260906070055 28 0 0.0 3.2 0.00 0.00 0.00 73 1012.4
20260906065544 28 0 0.0 3.2 0.00 0.00 0.00 72 1012.4
20260906065048 28 0 0.0 3.2 0.00 0.00 0.00 73 1012.5
20260906064551 28 249 0.0 3.2 0.00 0.00 0.00 72 1012.6
20260906064046 28 0 0.0 3.2 0.00 0.00 0.00 72 1012.5
20260906063548 28 0 0.0 3.2 0.00 0.00 0.00 72 1012.6
20260906063057 28 0 0.0 3.2 0.00 0.00 0.00 72 1012.4
20260906062543 28 0 0.0 4.8 0.00 0.00 0.00 72 1012.4
20260906062044 28 0 0.0 6.4 0.00 0.00 0.00 71 1012.5
20260906061556 28 0 0.0 6.4 0.00 0.00 0.00 72 1012.4
20260906061046 28 233 0.0 6.4 0.00 0.00 0.00 71 1012.5
20260906060547 28 185 1.6 6.4 0.00 0.00 0.00 71 1012.6
20260906060053 28 0 0.0 4.8 0.00 0.00 0.00 71 1012.7
20260906055544 28 0 0.0 1.6 0.00 0.00 0.00 71 1012.7
20260906055044 28 0 0.0 0.0 0.00 0.00 0.00 70 1012.6
20260906054558 28 0 0.0 0.0 0.00 0.00 0.00 70 1012.6
20260906054044 29 0 0.0 0.0 0.00 0.00 0.00 69 1012.6
20260906053545 29 0 0.0 0.0 0.00 0.00 0.00 69 1012.6
20260906053055 29 0 0.0 1.6 0.00 0.00 0.00 69 1012.6
20260906052544 29 0 0.0 3.2 0.00 0.00 0.00 69 1012.6
20260906052044 29 0 0.0 3.2 0.00 0.00 0.00 69 1012.6
20260906051603 29 0 0.0 8.0 0.00 0.00 0.00 68 1012.6
20260906051044 29 0 0.0 8.0 0.00 0.00 0.00 68 1012.7
20260906050547 30 0 3.2 8.0 0.00 0.00 0.00 67 1012.7
20260906050101 30 195 1.6 8.0 0.00 0.00 0.00 68 1012.7
20260906045544 30 161 1.6 8.0 0.00 0.00 0.00 67 1012.7
20260906045044 30 255 0.0 6.4 0.00 0.00 0.00 67 1012.6
20260906044556 30 193 0.0 8.0 0.00 0.00 0.00 66 1012.5
20260906044044 30 172 0.0 8.0 0.00 0.00 0.00 66 1012.6
20260906043543 30 178 1.6 4.8 0.00 0.00 0.00 66 1012.5
20260906043052 30 201 0.0 3.2 0.00 0.00 0.00 66 1012.5
20260906042544 30 181 0.0 3.2 0.00 0.00 0.00 66 1012.5
20260906042043 30 0 0.0 4.8 0.00 0.00 0.00 65 1012.5
20260906041551 30 194 0.0 4.8 0.00 0.00 0.00 65 1012.4
20260906041044 30 161 0.0 6.4 0.00 0.00 0.00 65 1012.4
20260906040544 30 194 1.6 8.0 0.00 0.00 0.00 65 1012.4
20260906040101 30 0 1.6 8.0 0.00 0.00 0.00 65 1012.4
20260906035545 30 181 3.2 9.7 0.00 0.00 0.00 64 1012.4
20260906035044 30 176 1.6 9.7 0.00 0.00 0.00 64 1012.6
20260906034603 30 162 3.2 9.7 0.00 0.00 0.00 63 1012.6
20260906034045 30 0 1.6 9.7 0.00 0.00 0.00 63 1012.5
20260906033543 31 165 3.2 9.7 0.00 0.00 0.00 62 1012.6
20260906033055 31 0 1.6 12.9 0.00 0.00 0.00 62 1012.6
20260906032547 31 245 3.2 14.5 0.00 0.00 0.00 62 1012.5
20260906032046 31 187 4.8 14.5 0.00 0.00 0.00 61 1012.7
20260906031555 31 180 4.8 12.9 0.00 0.00 0.00 61 1012.8
20260906031049 31 169 3.2 14.5 0.00 0.00 0.00 61 1012.7
20260906030547 31 154 3.2 14.5 0.00 0.00 0.00 61 1012.7
20260906030053 31 177 4.8 11.3 0.00 0.00 0.00 60 1012.7
20260906025546 31 159 3.2 14.5 0.00 0.00 0.00 60 1012.7
20260906025047 31 199 3.2 14.5 0.00 0.00 0.00 60 1012.5
20260906024553 31 222 3.2 14.5 0.00 0.00 0.00 60 1012.6
20260906024046 31 127 3.2 12.9 0.00 0.00 0.00 60 1012.5
20260906023543 31 200 4.8 12.9 0.00 0.00 0.00 60 1012.3
20260906023103 31 218 3.2 11.3 0.00 0.00 0.00 60 1012.3
20260906022550 31 81 1.6 11.3 0.00 0.00 0.00 60 1012.1
20260906022048 31 191 3.2 11.3 0.00 0.00 0.00 59 1012.0
20260906021558 31 51 0.0 12.9 0.00 0.00 0.00 60 1011.9
20260906021043 31 0 1.6 14.5 0.00 0.00 0.00 59 1011.8
20260906020547 31 57 3.2 14.5 0.00 0.00 0.00 59 1011.9
20260906020053 32 197 3.2 11.3 0.00 0.00 0.00 59 1011.9
20260906015543 32 212 1.6 11.3 0.00 0.00 0.00 59 1011.7
20260906015043 32 160 1.6 9.7 0.00 0.00 0.00 57 1011.7
20260906014554 32 0 1.6 9.7 0.00 0.00 0.00 57 1011.7
20260906014046 32 188 1.6 11.3 0.00 0.00 0.00 57 1011.5
20260906013547 32 134 3.2 16.1 0.00 0.00 0.00 56 1011.5
20260906013055 33 161 3.2 20.9 0.00 0.00 0.00 55 1011.4
20260906012543 33 186 4.8 22.5 0.00 0.00 0.00 55 1011.1
20260906012044 33 198 8.0 22.5 0.00 0.00 0.00 53 1011.1
20260906011607 33 90 6.4 20.9 0.00 0.00 0.00 51 1011.0
20260906011044 34 0 0.0 4.8 0.00 0.00 0.00 48 1010.9
20260906010543 34 0 0.0 11.3 0.00 0.00 0.00 47 1010.8
20260906010054 34 0 0.0 11.3 0.00 0.00 0.00 47 1010.9
20260906005543 34 130 1.6 9.7 0.00 0.00 0.00 46 1011.0
20260906005045 35 0 0.0 4.8 0.00 0.00 0.00 46 1011.0
20260906004601 35 0 0.0 4.8 0.00 0.00 0.00 46 1010.9
20260906004049 35 0 0.0 6.4 0.00 0.00 0.00 45 1010.9
20260906003544 35 126 0.0 6.4 0.00 0.00 0.00 45 1010.9
20260906003105 35 132 0.0 6.4 0.00 0.00 0.00 45 1010.9
20260906002543 35 117 0.0 4.8 0.00 0.00 0.00 44 1010.8
20260906002044 35 139 0.0 4.8 0.00 0.00 0.00 44 1010.8
20260906001602 35 0 0.0 9.7 0.00 0.00 0.00 44 1010.8
20260906001045 35 0 0.0 9.7 0.00 0.00 0.00 44 1010.8
20260906000543 36 161 0.0 6.4 0.00 0.00 0.00 44 1010.8
20260906000109 36 0 1.6 6.4 0.00 0.00 0.00 43 1010.7
20260905235547 36 0 0.0 6.4 0.00 0.00 0.00 43 1010.6
20260905235050 36 126 1.6 6.4 0.00 0.00 0.00 42 1010.7
20260905234600 36 0 0.0 4.8 0.00 0.00 0.00 42 1010.6
20260905234047 36 207 0.0 9.7 0.00 0.00 0.00 41 1010.6
20260905233544 36 138 0.0 9.7 0.00 0.00 0.00 42 1010.7
20260905233106 36 159 0.0 4.8 0.00 0.00 0.00 41 1010.7
20260905232543 36 107 0.0 6.4 0.00 0.00 0.00 40 1010.6
20260905232043 36 68 1.6 6.4 0.00 0.00 0.00 41 1010.7
20260905231551 36 0 0.0 4.8 0.00 0.00 0.00 40 1010.7
20260905231050 36 96 0.0 4.8 0.00 0.00 0.00 40 1010.6
20260905230547 36 0 0.0 9.7 0.00 0.00 0.00 40 1010.7
20260905230059 36 0 0.0 9.7 0.00 0.00 0.00 40 1010.6